Weather History for Centralia, IL

Change the Weather History Date:

Friday, January 25, 2013

  Actual Average (KSLO) Record (KSLO)
Temperature  
Mean Temperature 33 °F -  
Max Temperature 39 °F 40 °F 64 °F (1967)
Min Temperature 27 °F 22 °F -1 °F (1961)
Degree Days  
Heating Degree Days 32    
Moisture  
Dew Point 17 °F    
Average Humidity 55    
Maximum Humidity 76    
Minimum Humidity 41    
Precipitation  
Precipitation 0.00 in - - ()
Sea Level Pressure  
Sea Level Pressure 30.16 in    
Wind  
Wind Speed 8 mph (WSW)    
Max Wind Speed 13 mph    
Max Gust Speed 17 mph    
Visibility 10 miles    
Events      
Averages and records for this station are not official NWS values.
T = Trace of Precipitation, MM = Missing Value Source: NWS Daily Summary

Daily Weather History Graph

Daily Weather History Graph

Search for Another Location

Airport:

Trip Planner

Search our weather history database for the weather conditions in past years. The results will help you decide how hot, cold, wet, or windy it might be!

Date:

Astronomy

Jan. 25, 2013 Rise Set
Actual Time 7:07 AM CST 5:10 PM CST
Civil Twilight 6:38 AM CST 5:39 PM CST
Nautical Twilight 6:06 AM CST 6:11 PM CST
Astronomical Twilight 5:35 AM CST 6:42 PM CST
Moon 4:07 PM CST (1/25) 5:46 AM CST (1/25)
Length of Visible Light 11h 00m
Length of Day
10h 03m
Waxing Gibbous, 98% of the Moon is Illuminated
Jan 25
Waxing Gibbous
Jan 26
Full
Feb 3
Last Quarter
Feb 10
New
Feb 17
First Quarter

Hourly Weather History & Observations

Time (CST) Temp. Windchill Dew Point Humidity Pressure Visibility Wind Dir Wind Speed Gust Speed Precip Events Conditions
12:15 AM 28.0 °F 20.0 °F 8.2 °F 43% 30.27 in 10.0 mi East 8.1 mph - N/A   Overcast
12:35 AM 28.2 °F 20.2 °F 8.2 °F 43% 30.26 in 10.0 mi East 8.1 mph - N/A   Overcast
12:55 AM 28.2 °F 19.5 °F 7.5 °F 42% 30.25 in 10.0 mi East 9.2 mph - N/A   Overcast
1:15 AM 28.2 °F 22.0 °F 7.3 °F 41% 30.26 in 10.0 mi East 5.8 mph - N/A   Overcast
1:35 AM 28.2 °F 20.2 °F 7.9 °F 42% 30.25 in 10.0 mi ENE 8.1 mph - N/A   Overcast
1:55 AM 28.2 °F 20.2 °F 7.7 °F 42% 30.24 in 10.0 mi ESE 8.1 mph - N/A   Overcast
2:15 AM 28.0 °F 20.0 °F 7.9 °F 43% 30.21 in 10.0 mi ESE 8.1 mph - N/A   Overcast
2:35 AM 28.0 °F 17.5 °F 8.1 °F 43% 30.20 in 10.0 mi ESE 12.7 mph - N/A   Overcast
2:55 AM 28.0 °F 18.6 °F 8.1 °F 43% 30.18 in 10.0 mi ESE 10.4 mph - N/A   Overcast
3:15 AM 28.0 °F 18.1 °F 7.7 °F 42% 30.16 in 10.0 mi ESE 11.5 mph - N/A   Overcast
3:35 AM 28.0 °F 17.5 °F 6.8 °F 41% 30.15 in 10.0 mi ESE 12.7 mph 16.1 mph N/A   Overcast
3:55 AM 27.9 °F 19.1 °F 7.7 °F 43% 30.15 in 10.0 mi ESE 9.2 mph - N/A   Overcast
4:15 AM 27.9 °F 21.5 °F 7.9 °F 43% 30.16 in 10.0 mi East 5.8 mph - N/A   Overcast
4:35 AM 28.0 °F 22.8 °F 8.8 °F 44% 30.16 in 10.0 mi ESE 4.6 mph - N/A   Overcast
4:55 AM 27.9 °F 22.6 °F 8.8 °F 45% 30.16 in 10.0 mi SE 4.6 mph - N/A   Overcast
5:15 AM 28.0 °F - 9.5 °F 46% 30.16 in 10.0 mi Calm Calm - N/A   Overcast
5:35 AM 27.7 °F 18.2 °F 11.3 °F 50% 30.12 in 10.0 mi SE 10.4 mph - N/A   Overcast
5:55 AM 28.4 °F - 10.4 °F 47% 30.14 in 10.0 mi Calm Calm - N/A   Overcast
6:15 AM 27.9 °F - 10.9 °F 49% 30.16 in 10.0 mi Calm Calm - N/A   Overcast
6:35 AM 27.9 °F - 11.1 °F 50% 30.13 in 10.0 mi Calm Calm - N/A   Overcast
6:55 AM 27.9 °F - 11.1 °F 50% 30.13 in 10.0 mi Calm Calm - N/A   Overcast
7:15 AM 28.4 °F - 10.4 °F 47% 30.13 in 10.0 mi Calm Calm - N/A   Overcast
7:35 AM 28.0 °F - 10.8 °F 48% 30.13 in 10.0 mi Calm Calm - N/A   Overcast
7:55 AM 28.2 °F - 11.3 °F 49% 30.15 in 10.0 mi Calm Calm - N/A   Overcast
8:15 AM 28.4 °F - 11.1 °F 48% 30.15 in 10.0 mi Calm Calm - N/A   Overcast
8:35 AM 28.9 °F 25.2 °F 11.5 °F 48% 30.15 in 10.0 mi West 3.5 mph - N/A   Overcast
8:55 AM 29.3 °F 24.3 °F 11.8 °F 48% 30.16 in 10.0 mi WNW 4.6 mph - N/A   Overcast
9:15 AM 29.8 °F 23.0 °F 11.8 °F 47% 30.17 in 10.0 mi West 6.9 mph - N/A   Overcast
9:35 AM 30.2 °F 22.6 °F 13.1 °F 49% 30.17 in 10.0 mi West 8.1 mph - N/A   Overcast
9:55 AM 31.1 °F 23.7 °F 15.1 °F 52% 30.17 in 10.0 mi WNW 8.1 mph - N/A   Overcast
10:15 AM 31.5 °F 23.5 °F 15.6 °F 52% 30.17 in 10.0 mi WNW 9.2 mph - N/A   Overcast
10:35 AM 32.0 °F 23.6 °F 16.7 °F 53% 30.17 in 10.0 mi WNW 10.4 mph - N/A   Overcast
10:55 AM 32.9 °F 24.7 °F 17.4 °F 53% 30.16 in 10.0 mi WNW 10.4 mph - N/A   Overcast
11:15 AM 33.6 °F 25.0 °F 17.8 °F 52% 30.15 in 10.0 mi WNW 11.5 mph - N/A   Overcast
11:35 AM 34.7 °F 26.4 °F 18.3 °F 51% 30.14 in 10.0 mi WNW 11.5 mph - N/A   Overcast
11:55 AM 35.1 °F 27.4 °F 18.5 °F 51% 30.13 in 10.0 mi WNW 10.4 mph - N/A   Overcast
12:15 PM 35.1 °F 26.9 °F 19.0 °F 52% 30.12 in 10.0 mi WNW 11.5 mph 16.1 mph N/A   Overcast
12:35 PM 35.8 °F 28.3 °F 19.8 °F 52% 30.12 in 10.0 mi West 10.4 mph 16.1 mph N/A   Unknown
12:55 PM 37.4 °F 30.3 °F 21.2 °F 52% 30.12 in 10.0 mi WNW 10.4 mph 17.3 mph N/A   Unknown
1:15 PM 37.6 °F 30.0 °F 21.0 °F 51% 30.11 in 10.0 mi WNW 11.5 mph 16.1 mph N/A   Unknown
1:35 PM 37.9 °F 31.5 °F 21.2 °F 51% 30.11 in 10.0 mi WSW 9.2 mph 17.3 mph N/A   Unknown
1:55 PM 38.5 °F 31.6 °F 22.1 °F 52% 30.10 in 10.0 mi West 10.4 mph - N/A   Unknown
2:15 PM 38.7 °F 31.8 °F 22.3 °F 52% 30.11 in 10.0 mi West 10.4 mph - N/A   Unknown
2:35 PM 39.2 °F 32.0 °F 23.2 °F 53% 30.11 in 10.0 mi WNW 11.5 mph - N/A   Unknown
2:55 PM 39.4 °F 32.3 °F 23.4 °F 53% 30.11 in 10.0 mi West 11.5 mph - N/A   Unknown
3:15 PM 39.2 °F 32.5 °F 23.7 °F 54% 30.11 in 10.0 mi West 10.4 mph - N/A   Unknown
3:35 PM 39.4 °F 32.7 °F 23.7 °F 54% 30.11 in 10.0 mi West 10.4 mph - N/A   Unknown
3:55 PM 39.2 °F 32.5 °F 23.2 °F 53% 30.11 in 10.0 mi WSW 10.4 mph - N/A   Unknown
4:15 PM 39.2 °F 33.0 °F 23.4 °F 53% 30.11 in 10.0 mi WSW 9.2 mph - N/A   Unknown
4:35 PM 38.3 °F 32.5 °F 23.9 °F 56% 30.11 in 10.0 mi WSW 8.1 mph - N/A   Unknown
4:55 PM 36.1 °F 30.6 °F 24.4 °F 63% 30.11 in 10.0 mi SW 6.9 mph - N/A   Unknown
5:15 PM 34.9 °F 29.9 °F 24.6 °F 66% 30.12 in 10.0 mi WSW 5.8 mph - N/A   Unknown
5:35 PM 33.8 °F 29.6 °F 25.2 °F 71% 30.13 in 10.0 mi WSW 4.6 mph - N/A   Unknown
5:55 PM 34.2 °F 29.0 °F 24.8 °F 69% 30.13 in 10.0 mi SW 5.8 mph - N/A   Unknown
6:15 PM 32.0 °F 27.5 °F 25.3 °F 76% 30.14 in 10.0 mi WSW 4.6 mph - N/A   Unknown
6:35 PM 32.4 °F 26.9 °F 25.5 °F 76% 30.15 in 10.0 mi WSW 5.8 mph - N/A   Unknown
6:55 PM 32.2 °F 26.7 °F 25.5 °F 76% 30.14 in 10.0 mi WSW 5.8 mph - N/A   Unknown
7:15 PM 32.0 °F 25.6 °F 24.8 °F 75% 30.14 in 10.0 mi SW 6.9 mph - N/A   Unknown
7:35 PM 32.5 °F 25.5 °F 25.0 °F 74% 30.14 in 10.0 mi SW 8.1 mph - N/A   Unknown
7:55 PM 33.3 °F 26.4 °F 25.3 °F 73% 30.14 in 10.0 mi SW 8.1 mph - N/A   Unknown
8:15 PM 33.3 °F 26.4 °F 25.0 °F 72% 30.14 in 10.0 mi WSW 8.1 mph - N/A   Unknown
8:35 PM 33.1 °F 27.7 °F 24.4 °F 71% 30.15 in 10.0 mi WSW 5.8 mph - N/A   Unknown
8:55 PM 32.7 °F 27.3 °F 24.3 °F 71% 30.15 in 10.0 mi WSW 5.8 mph - N/A   Unknown
9:15 PM 32.0 °F 24.8 °F 24.3 °F 73% 30.16 in 10.0 mi SW 8.1 mph - N/A   Unknown
9:35 PM 33.4 °F 25.9 °F 24.6 °F 70% 30.17 in 10.0 mi WSW 9.2 mph - N/A   Unknown
9:55 PM 33.8 °F 27.0 °F 24.4 °F 69% 30.17 in 10.0 mi WSW 8.1 mph - N/A   Unknown
10:15 PM 33.4 °F 26.6 °F 24.1 °F 69% 30.18 in 10.0 mi WSW 8.1 mph - N/A   Unknown
10:35 PM 33.8 °F 26.4 °F 23.9 °F 67% 30.19 in 10.0 mi WSW 9.2 mph - N/A   Unknown
10:55 PM 33.8 °F 27.0 °F 23.5 °F 66% 30.19 in 10.0 mi WSW 8.1 mph - N/A   Unknown
11:15 PM 33.8 °F 26.4 °F 23.4 °F 66% 30.20 in 10.0 mi West 9.2 mph - N/A   Unknown
11:35 PM 35.4 °F 27.8 °F 22.8 °F 60% 30.21 in 10.0 mi West 10.4 mph - N/A   Unknown
11:55 PM 35.6 °F 28.6 °F 22.8 °F 60% 30.21 in 10.0 mi West 9.2 mph - N/A   Unknown